Time,TemperatureF,DewpointF,PressureIn,WindDirection,WindDirectionDegrees,WindSpeedMPH,WindSpeedGustMPH,Humidity,HourlyPrecipIn,Conditions,Clouds,dailyrainin,SoftwareType,DateUTC
2013-06-21 00:02:00,43.2,24.3,29.75,SE,133,0.0,1.0,47,0.00,,,0.00,meteohub,2013-06-21 07:02:00,
2013-06-21 00:07:00,43.0,23.2,29.76,SE,132,0.0,1.0,45,0.00,,,0.00,meteohub,2013-06-21 07:07:00,
2013-06-21 00:12:00,43.0,23.2,29.76,SE,132,1.0,2.0,45,0.00,,,0.00,meteohub,2013-06-21 07:12:00,
2013-06-21 00:17:00,42.6,24.8,29.76,SE,133,0.0,2.0,49,0.00,,,0.00,meteohub,2013-06-21 07:17:00,
2013-06-21 00:22:00,42.4,25.5,29.76,SE,132,0.0,2.0,51,0.00,,,0.00,meteohub,2013-06-21 07:22:00,
2013-06-21 00:27:00,42.1,26.2,29.76,SE,132,0.0,2.0,53,0.00,,,0.00,meteohub,2013-06-21 07:27:00,
2013-06-21 00:32:00,41.5,24.8,29.76,SE,132,0.0,1.0,51,0.00,,,0.00,meteohub,2013-06-21 07:32:00,
2013-06-21 00:37:00,41.5,20.1,29.77,SE,132,0.0,2.0,42,0.00,,,0.00,meteohub,2013-06-21 07:37:00,
2013-06-21 00:42:00,41.9,18.1,29.77,SE,132,0.0,2.0,38,0.00,,,0.00,meteohub,2013-06-21 07:42:00,
2013-06-21 00:47:00,42.4,18.7,29.77,SE,132,0.0,2.0,38,0.00,,,0.00,meteohub,2013-06-21 07:47:00,
2013-06-21 00:52:00,42.6,19.9,29.77,SE,132,0.0,1.0,40,0.00,,,0.00,meteohub,2013-06-21 07:52:00,
2013-06-21 00:57:00,42.6,21.2,29.77,SE,132,0.0,1.0,42,0.00,,,0.00,meteohub,2013-06-21 07:57:00,
2013-06-21 01:02:00,42.4,22.6,29.77,SE,132,0.0,1.0,45,0.00,,,0.00,meteohub,2013-06-21 08:02:00,
2013-06-21 01:07:00,41.7,25.0,29.77,SE,132,0.0,1.0,51,0.00,,,0.00,meteohub,2013-06-21 08:07:00,
2013-06-21 01:12:00,41.5,25.2,29.77,SE,132,0.0,2.0,52,0.00,,,0.00,meteohub,2013-06-21 08:12:00,
2013-06-21 01:17:00,40.6,26.6,29.77,SE,133,0.0,2.0,57,0.00,,,0.00,meteohub,2013-06-21 08:17:00,
2013-06-21 01:22:00,40.3,27.1,29.77,SE,132,0.0,1.0,59,0.00,,,0.00,meteohub,2013-06-21 08:22:00,
2013-06-21 01:27:00,39.7,27.9,29.77,SE,132,0.0,1.0,62,0.00,,,0.00,meteohub,2013-06-21 08:27:00,
2013-06-21 01:37:00,38.8,26.1,29.77,SE,132,0.0,1.0,60,0.00,,,0.00,meteohub,2013-06-21 08:37:00,
2013-06-21 01:42:00,38.8,27.0,29.77,SE,133,0.0,1.0,62,0.00,,,0.00,meteohub,2013-06-21 08:42:00,
2013-06-21 01:47:00,38.5,24.6,29.77,SE,132,0.0,0.0,57,0.00,,,0.00,meteohub,2013-06-21 08:47:00,
2013-06-21 01:52:00,38.5,22.8,29.77,SE,132,1.0,1.0,53,0.00,,,0.00,meteohub,2013-06-21 08:52:00,
2013-06-21 01:57:00,38.7,23.0,29.77,SE,132,1.0,2.0,53,0.00,,,0.00,meteohub,2013-06-21 08:57:00,
2013-06-21 02:02:00,38.7,24.8,29.78,SE,132,0.0,2.0,57,0.00,,,0.00,meteohub,2013-06-21 09:02:00,
2013-06-21 02:07:00,38.5,23.4,29.78,SE,132,1.0,2.0,54,0.00,,,0.00,meteohub,2013-06-21 09:07:00,
2013-06-21 02:12:00,38.1,23.9,29.78,SE,133,0.0,3.0,56,0.00,,,0.00,meteohub,2013-06-21 09:12:00,
2013-06-21 02:17:00,37.9,21.9,29.78,SE,133,0.0,3.0,52,0.00,,,0.00,meteohub,2013-06-21 09:17:00,
2013-06-21 02:22:00,37.9,23.7,29.78,SSE,151,0.0,3.0,56,0.00,,,0.00,meteohub,2013-06-21 09:22:00,
2013-06-21 02:27:00,37.8,23.9,29.78,SSE,151,0.0,3.0,57,0.00,,,0.00,meteohub,2013-06-21 09:27:00,
2013-06-21 02:32:00,37.8,20.3,29.78,SSE,151,0.0,3.0,49,0.00,,,0.00,meteohub,2013-06-21 09:32:00,
2013-06-21 02:42:00,37.8,21.2,29.79,SSE,151,0.0,0.0,51,0.00,,,0.00,meteohub,2013-06-21 09:42:00,
2013-06-21 02:47:00,37.8,26.2,29.79,SSE,151,0.0,1.0,63,0.00,,,0.00,meteohub,2013-06-21 09:47:00,
2013-06-21 02:52:00,37.2,23.0,29.79,SSE,151,0.0,1.0,56,0.00,,,0.00,meteohub,2013-06-21 09:52:00,
2013-06-21 02:57:00,37.0,22.8,29.79,SSE,151,0.0,1.0,56,0.00,,,0.00,meteohub,2013-06-21 09:57:00,
2013-06-21 03:02:00,36.9,21.7,29.79,SSE,151,0.0,0.0,54,0.00,,,0.00,meteohub,2013-06-21 10:02:00,
2013-06-21 03:07:00,37.0,20.1,29.79,SSE,151,1.0,1.0,50,0.00,,,0.00,meteohub,2013-06-21 10:07:00,
2013-06-21 03:12:00,36.7,23.4,29.79,SSE,151,1.0,3.0,58,0.00,,,0.00,meteohub,2013-06-21 10:12:00,
2013-06-21 03:17:00,36.3,20.8,29.79,SSE,151,0.0,3.0,53,0.00,,,0.00,meteohub,2013-06-21 10:17:00,
2013-06-21 03:22:00,36.3,19.9,29.80,SSE,151,0.0,3.0,51,0.00,,,0.00,meteohub,2013-06-21 10:22:00,
2013-06-21 03:27:00,36.7,19.8,29.80,SSE,151,0.0,2.0,50,0.00,,,0.00,meteohub,2013-06-21 10:27:00,
2013-06-21 03:32:00,36.7,18.9,29.80,SSE,151,0.0,1.0,48,0.00,,,0.00,meteohub,2013-06-21 10:32:00,
2013-06-21 03:37:00,36.7,21.6,29.80,SSE,151,0.0,1.0,54,0.00,,,0.00,meteohub,2013-06-21 10:37:00,
2013-06-21 03:42:00,36.0,21.7,29.80,SSE,151,1.0,1.0,56,0.00,,,0.00,meteohub,2013-06-21 10:42:00,
2013-06-21 03:47:00,36.0,20.1,29.81,SSE,151,0.0,3.0,52,0.00,,,0.00,meteohub,2013-06-21 10:47:00,
2013-06-21 03:52:00,36.0,17.6,29.81,SSE,151,0.0,3.0,47,0.00,,,0.00,meteohub,2013-06-21 10:52:00,
2013-06-21 03:57:00,36.0,18.7,29.81,SSE,151,0.0,2.0,49,0.00,,,0.00,meteohub,2013-06-21 10:57:00,
2013-06-21 04:02:00,35.8,20.3,29.81,SSE,151,0.0,2.0,53,0.00,,,0.00,meteohub,2013-06-21 11:02:00,
2013-06-21 04:07:00,35.4,22.5,29.82,SSE,151,1.0,2.0,59,0.00,,,0.00,meteohub,2013-06-21 11:07:00,
2013-06-21 04:12:00,35.1,17.8,29.81,SSE,151,0.0,2.0,49,0.00,,,0.00,meteohub,2013-06-21 11:12:00,
2013-06-21 04:17:00,35.1,21.7,29.82,SSE,151,0.0,2.0,58,0.00,,,0.00,meteohub,2013-06-21 11:17:00,
2013-06-21 04:22:00,34.9,21.2,29.82,SSE,151,0.0,1.0,57,0.00,,,0.00,meteohub,2013-06-21 11:22:00,
2013-06-21 04:27:00,34.5,20.5,29.81,SSE,151,0.0,1.0,56,0.00,,,0.00,meteohub,2013-06-21 11:27:00,
2013-06-21 04:32:00,34.3,21.6,29.82,SSE,151,0.0,1.0,59,0.00,,,0.00,meteohub,2013-06-21 11:32:00,
2013-06-21 04:37:00,34.2,19.2,29.82,SSE,151,0.0,2.0,54,0.00,,,0.00,meteohub,2013-06-21 11:37:00,
2013-06-21 04:42:00,34.7,18.5,29.82,SSE,151,0.0,3.0,51,0.00,,,0.00,meteohub,2013-06-21 11:42:00,
2013-06-21 04:47:00,35.1,21.4,29.82,SSE,151,0.0,3.0,57,0.00,,,0.00,meteohub,2013-06-21 11:47:00,
2013-06-21 04:52:00,34.9,20.8,29.82,SSE,151,0.0,3.0,56,0.00,,,0.00,meteohub,2013-06-21 11:52:00,
2013-06-21 04:57:00,34.3,23.0,29.83,SSE,151,0.0,0.0,63,0.00,,,0.00,meteohub,2013-06-21 11:57:00,
2013-06-21 05:02:00,34.0,19.6,29.83,SSE,151,0.0,0.0,55,0.00,,,0.00,meteohub,2013-06-21 12:02:00,
2013-06-21 05:07:00,34.0,19.9,29.83,SSE,151,0.0,2.0,56,0.00,,,0.00,meteohub,2013-06-21 12:07:00,
2013-06-21 05:12:00,34.0,23.0,29.83,SSE,151,0.0,2.0,64,0.00,,,0.00,meteohub,2013-06-21 12:12:00,
2013-06-21 05:17:00,33.6,24.8,29.83,SSE,151,0.0,1.0,70,0.00,,,0.00,meteohub,2013-06-21 12:17:00,
2013-06-21 05:22:00,33.4,22.3,29.83,SSE,151,0.0,1.0,63,0.00,,,0.00,meteohub,2013-06-21 12:22:00,
2013-06-21 05:27:00,33.4,23.7,29.83,SSE,151,0.0,1.0,67,0.00,,,0.00,meteohub,2013-06-21 12:27:00,
2013-06-21 05:32:00,33.4,23.7,29.83,SSE,151,0.0,1.0,67,0.00,,,0.00,meteohub,2013-06-21 12:32:00,
2013-06-21 05:37:00,33.6,23.5,29.83,SSE,151,0.0,1.0,66,0.00,,,0.00,meteohub,2013-06-21 12:37:00,
2013-06-21 05:47:00,33.4,24.4,29.83,SSE,151,0.0,0.0,69,0.00,,,0.00,meteohub,2013-06-21 12:47:00,
2013-06-21 05:52:00,33.4,23.0,29.83,SSE,151,0.0,0.0,65,0.00,,,0.00,meteohub,2013-06-21 12:52:00,
2013-06-21 05:57:00,33.4,22.3,29.83,SSE,151,0.0,1.0,63,0.00,,,0.00,meteohub,2013-06-21 12:57:00,
2013-06-21 06:02:00,33.4,20.3,29.83,SSE,151,1.0,1.0,58,0.00,,,0.00,meteohub,2013-06-21 13:02:00,
2013-06-21 06:12:00,35.2,19.4,29.83,SSE,151,1.0,2.0,52,0.00,,,0.00,meteohub,2013-06-21 13:12:00,
2013-06-21 06:17:00,36.0,26.4,29.83,SSE,151,0.0,2.0,68,0.00,,,0.00,meteohub,2013-06-21 13:17:00,
2013-06-21 06:22:00,36.3,23.4,29.83,SSE,151,0.0,2.0,59,0.00,,,0.00,meteohub,2013-06-21 13:22:00,
2013-06-21 06:27:00,36.9,20.8,29.83,SSE,151,0.0,2.0,52,0.00,,,0.00,meteohub,2013-06-21 13:27:00,
2013-06-21 06:32:00,37.9,25.7,29.83,SSE,151,1.0,1.0,61,0.00,,,0.00,meteohub,2013-06-21 13:32:00,
2013-06-21 06:37:00,39.4,24.1,29.83,SSE,151,0.0,2.0,54,0.00,,,0.00,meteohub,2013-06-21 13:37:00,
2013-06-21 06:42:00,40.8,24.1,29.83,SSE,151,0.0,2.0,51,0.00,,,0.00,meteohub,2013-06-21 13:42:00,
2013-06-21 06:52:00,43.9,20.5,29.83,SSE,151,0.0,1.0,39,0.00,,,0.00,meteohub,2013-06-21 13:52:00,
2013-06-21 06:57:00,44.8,20.1,29.83,SSE,151,0.0,1.0,37,0.00,,,0.00,meteohub,2013-06-21 13:57:00,
2013-06-21 07:02:00,46.6,22.3,29.83,SSE,151,0.0,1.0,38,0.00,,,0.00,meteohub,2013-06-21 14:02:00,
2013-06-21 07:07:00,48.0,25.5,29.83,SSE,151,0.0,1.0,41,0.00,,,0.00,meteohub,2013-06-21 14:07:00,
2013-06-21 07:12:00,48.9,28.0,29.83,SSE,151,0.0,1.0,44,0.00,,,0.00,meteohub,2013-06-21 14:12:00,
2013-06-21 07:22:00,50.2,26.2,29.82,SSE,151,0.0,1.0,39,0.00,,,0.00,meteohub,2013-06-21 14:22:00,
2013-06-21 07:27:00,51.3,24.6,29.82,SSE,151,0.0,1.0,35,0.00,,,0.00,meteohub,2013-06-21 14:27:00,
2013-06-21 07:32:00,52.0,22.3,29.81,SSE,151,0.0,1.0,31,0.00,,,0.00,meteohub,2013-06-21 14:32:00,
2013-06-21 07:37:00,52.7,23.7,29.81,SSE,151,0.0,1.0,32,0.00,,,0.00,meteohub,2013-06-21 14:37:00,
2013-06-21 07:42:00,53.6,21.2,29.81,SSE,151,0.0,1.0,28,0.00,,,0.00,meteohub,2013-06-21 14:42:00,
2013-06-21 07:52:00,55.0,20.8,29.80,SSE,151,0.0,2.0,26,0.00,,,0.00,meteohub,2013-06-21 14:52:00,
2013-06-21 07:57:00,55.9,21.6,29.80,SSE,151,0.0,2.0,26,0.00,,,0.00,meteohub,2013-06-21 14:57:00,
2013-06-21 08:02:00,56.8,22.3,29.79,SSE,151,0.0,2.0,26,0.00,,,0.00,meteohub,2013-06-21 15:02:00,
2013-06-21 08:17:00,57.9,26.6,29.79,NW,317,1.0,4.0,30,0.00,,,0.00,meteohub,2013-06-21 15:17:00,
2013-06-21 08:22:00,58.6,24.8,29.79,NW,319,2.0,5.0,27,0.00,,,0.00,meteohub,2013-06-21 15:22:00,
2013-06-21 08:27:00,59.0,26.8,29.78,NW,317,1.0,6.0,29,0.00,,,0.00,meteohub,2013-06-21 15:27:00,
2013-06-21 08:32:00,59.7,28.2,29.78,West,275,4.0,6.0,30,0.00,,,0.00,meteohub,2013-06-21 15:32:00,
2013-06-21 08:37:00,60.3,29.5,29.78,NW,309,3.0,6.0,31,0.00,,,0.00,meteohub,2013-06-21 15:37:00,
2013-06-21 08:47:00,61.5,34.3,29.77,WSW,249,5.0,5.0,36,0.00,,,0.00,meteohub,2013-06-21 15:47:00,
2013-06-21 08:52:00,62.1,31.8,29.76,NW,315,3.0,6.0,32,0.00,,,0.00,meteohub,2013-06-21 15:52:00,
2013-06-21 08:57:00,62.8,35.4,29.76,NW,315,0.0,6.0,36,0.00,,,0.00,meteohub,2013-06-21 15:57:00,
2013-06-21 09:02:00,63.9,34.2,29.76,NW,314,0.0,6.0,33,0.00,,,0.00,meteohub,2013-06-21 16:02:00,
2013-06-21 09:07:00,64.9,34.3,29.75,NW,311,4.0,6.0,32,0.00,,,0.00,meteohub,2013-06-21 16:07:00,
2013-06-21 09:17:00,66.9,30.9,29.75,NW,316,8.0,8.0,26,0.00,,,0.00,meteohub,2013-06-21 16:17:00,
2013-06-21 09:22:00,67.5,28.4,29.75,North,355,3.0,9.0,23,0.00,,,0.00,meteohub,2013-06-21 16:22:00,
2013-06-21 09:27:00,68.0,27.7,29.75,NW,306,6.0,9.0,22,0.00,,,0.00,meteohub,2013-06-21 16:27:00,
2013-06-21 09:32:00,68.4,27.0,29.75,NNE,23,4.0,12.0,21,0.00,,,0.00,meteohub,2013-06-21 16:32:00,
2013-06-21 09:37:00,68.9,26.2,29.75,NNE,23,3.0,12.0,20,0.00,,,0.00,meteohub,2013-06-21 16:37:00,
2013-06-21 09:42:00,69.1,26.2,29.75,NW,313,10.0,12.0,20,0.00,,,0.00,meteohub,2013-06-21 16:42:00,
2013-06-21 09:47:00,68.4,28.0,29.75,NW,305,11.0,15.0,22,0.00,,,0.00,meteohub,2013-06-21 16:47:00,
2013-06-21 09:52:00,67.8,27.5,29.75,NW,316,7.0,15.0,22,0.00,,,0.00,meteohub,2013-06-21 16:52:00,
2013-06-21 09:57:00,67.8,26.4,29.75,West,278,8.0,15.0,21,0.00,,,0.00,meteohub,2013-06-21 16:57:00,
2013-06-21 10:02:00,67.8,25.3,29.76,NNW,332,5.0,16.0,20,0.00,,,0.00,meteohub,2013-06-21 17:02:00,
2013-06-21 10:07:00,68.2,26.8,29.76,NW,318,8.0,16.0,21,0.00,,,0.00,meteohub,2013-06-21 17:07:00,
2013-06-21 10:12:00,68.5,24.6,29.76,NW,308,5.0,16.0,19,0.00,,,0.00,meteohub,2013-06-21 17:12:00,
2013-06-21 10:22:00,69.6,24.3,29.75,NNW,327,2.0,9.0,18,0.00,,,0.00,meteohub,2013-06-21 17:22:00,
2013-06-21 10:27:00,69.8,23.0,29.75,WNW,283,6.0,10.0,17,0.00,,,0.00,meteohub,2013-06-21 17:27:00,
2013-06-21 10:32:00,70.2,23.4,29.75,NE,54,3.0,10.0,17,0.00,,,0.00,meteohub,2013-06-21 17:32:00,
2013-06-21 10:37:00,70.7,23.7,29.75,NW,322,2.0,12.0,17,0.00,,,0.00,meteohub,2013-06-21 17:37:00,
2013-06-21 10:47:00,71.6,24.4,29.75,NNE,15,0.0,12.0,17,0.00,,,0.00,meteohub,2013-06-21 17:47:00,
2013-06-21 10:52:00,72.3,23.5,29.75,North,11,1.0,8.0,16,0.00,,,0.00,meteohub,2013-06-21 17:52:00,
2013-06-21 10:57:00,72.1,28.8,29.74,WNW,300,6.0,6.0,20,0.00,,,0.00,meteohub,2013-06-21 17:57:00,
2013-06-21 11:07:00,72.0,24.8,29.73,NNE,31,6.0,8.0,17,0.00,,,0.00,meteohub,2013-06-21 18:07:00,
2013-06-21 11:17:00,72.3,23.5,29.73,NNE,30,5.0,12.0,16,0.00,,,0.00,meteohub,2013-06-21 18:17:00,
2013-06-21 11:22:00,72.9,20.8,29.73,NW,321,4.0,12.0,14,0.00,,,0.00,meteohub,2013-06-21 18:22:00,
2013-06-21 11:27:00,73.0,27.0,29.73,NW,304,6.0,13.0,18,0.00,,,0.00,meteohub,2013-06-21 18:27:00,
2013-06-21 11:32:00,73.0,25.7,29.73,NW,317,5.0,13.0,17,0.00,,,0.00,meteohub,2013-06-21 18:32:00,
2013-06-21 11:37:00,73.0,24.3,29.73,NNW,348,2.0,13.0,16,0.00,,,0.00,meteohub,2013-06-21 18:37:00,
2013-06-21 11:52:00,73.0,29.7,29.72,NW,307,12.0,12.0,20,0.00,,,0.00,meteohub,2013-06-21 18:52:00,
2013-06-21 11:57:00,72.9,29.5,29.72,NW,312,9.0,16.0,20,0.00,,,0.00,meteohub,2013-06-21 18:57:00,
2013-06-21 12:07:00,73.8,24.8,29.72,NW,318,4.0,16.0,16,0.00,,,0.00,meteohub,2013-06-21 19:07:00,
2013-06-21 12:12:00,73.9,25.0,29.71,North,0,4.0,15.0,16,0.00,,,0.00,meteohub,2013-06-21 19:12:00,
2013-06-21 12:17:00,73.6,27.5,29.72,NW,322,4.0,13.0,18,0.00,,,0.00,meteohub,2013-06-21 19:17:00,
2013-06-21 12:22:00,73.6,26.1,29.71,NE,53,4.0,13.0,17,0.00,,,0.00,meteohub,2013-06-21 19:22:00,
2013-06-21 12:27:00,74.1,27.9,29.71,NW,309,4.0,13.0,18,0.00,,,0.00,meteohub,2013-06-21 19:27:00,
2013-06-21 12:32:00,74.1,23.5,29.71,NE,49,2.0,13.0,15,0.00,,,0.00,meteohub,2013-06-21 19:32:00,
2013-06-21 12:37:00,74.5,25.3,29.71,North,5,5.0,13.0,16,0.00,,,0.00,meteohub,2013-06-21 19:37:00,
2013-06-21 12:52:00,74.1,23.5,29.70,NNE,32,4.0,16.0,15,0.00,,,0.00,meteohub,2013-06-21 19:52:00,
2013-06-21 12:57:00,74.7,23.9,29.70,NW,312,7.0,16.0,15,0.00,,,0.00,meteohub,2013-06-21 19:57:00,
2013-06-21 13:02:00,75.0,22.6,29.70,WNW,286,7.0,13.0,14,0.00,,,0.00,meteohub,2013-06-21 20:02:00,
2013-06-21 13:07:00,75.2,22.6,29.70,WNW,294,8.0,12.0,14,0.00,,,0.00,meteohub,2013-06-21 20:07:00,
2013-06-21 13:12:00,75.0,25.7,29.70,WNW,303,4.0,13.0,16,0.00,,,0.00,meteohub,2013-06-21 20:12:00,
2013-06-21 13:22:00,74.5,22.1,29.70,NNW,340,2.0,15.0,14,0.00,,,0.00,meteohub,2013-06-21 20:22:00,
2013-06-21 13:27:00,74.1,26.6,29.70,NNW,329,6.0,15.0,17,0.00,,,0.00,meteohub,2013-06-21 20:27:00,
2013-06-21 13:32:00,73.0,22.6,29.70,NE,37,4.0,15.0,15,0.00,,,0.00,meteohub,2013-06-21 20:32:00,
2013-06-21 13:37:00,74.1,25.0,29.70,NE,37,5.0,15.0,16,0.00,,,0.00,meteohub,2013-06-21 20:37:00,
2013-06-21 13:42:00,75.0,25.7,29.70,North,5,3.0,15.0,16,0.00,,,0.00,meteohub,2013-06-21 20:42:00,
2013-06-21 13:52:00,75.4,22.8,29.70,WNW,301,8.0,14.0,14,0.00,,,0.00,meteohub,2013-06-21 20:52:00,
2013-06-21 13:57:00,75.2,21.0,29.70,NE,50,4.0,14.0,13,0.00,,,0.00,meteohub,2013-06-21 20:57:00,
2013-06-21 14:02:00,74.8,20.7,29.70,NNW,328,4.0,14.0,13,0.00,,,0.00,meteohub,2013-06-21 21:02:00,
2013-06-21 14:07:00,75.0,22.6,29.70,NE,44,7.0,12.0,14,0.00,,,0.00,meteohub,2013-06-21 21:07:00,
2013-06-21 14:12:00,75.2,24.4,29.69,NW,323,4.0,13.0,15,0.00,,,0.00,meteohub,2013-06-21 21:12:00,
2013-06-21 14:17:00,74.5,28.2,29.69,NNW,343,5.0,13.0,18,0.00,,,0.00,meteohub,2013-06-21 21:17:00,
2013-06-21 14:27:00,73.0,22.6,29.70,NNW,337,3.0,13.0,15,0.00,,,0.00,meteohub,2013-06-21 21:27:00,
2013-06-21 14:32:00,72.9,19.2,29.70,NW,323,3.0,13.0,13,0.00,,,0.00,meteohub,2013-06-21 21:32:00,
2013-06-21 14:37:00,73.2,21.2,29.69,North,0,3.0,13.0,14,0.00,,,0.00,meteohub,2013-06-21 21:37:00,
2013-06-21 14:42:00,73.6,23.0,29.69,NNW,338,3.0,11.0,15,0.00,,,0.00,meteohub,2013-06-21 21:42:00,
2013-06-21 14:47:00,73.6,23.0,29.69,North,9,4.0,12.0,15,0.00,,,0.00,meteohub,2013-06-21 21:47:00,
2013-06-21 14:57:00,73.0,21.0,29.69,NNW,340,5.0,12.0,14,0.00,,,0.00,meteohub,2013-06-21 21:57:00,
2013-06-21 15:02:00,72.9,19.2,29.68,NNW,339,3.0,14.0,13,0.00,,,0.00,meteohub,2013-06-21 22:02:00,
2013-06-21 15:07:00,72.9,20.8,29.68,NE,48,4.0,14.0,14,0.00,,,0.00,meteohub,2013-06-21 22:07:00,
2013-06-21 15:12:00,72.7,20.7,29.69,NNE,13,0.0,14.0,14,0.00,,,0.00,meteohub,2013-06-21 22:12:00,
2013-06-21 15:17:00,72.9,20.8,29.69,NNE,30,4.0,11.0,14,0.00,,,0.00,meteohub,2013-06-21 22:17:00,
2013-06-21 15:22:00,72.7,20.7,29.69,NNW,333,2.0,11.0,14,0.00,,,0.00,meteohub,2013-06-21 22:22:00,
2013-06-21 15:27:00,72.7,19.0,29.69,North,5,7.0,11.0,13,0.00,,,0.00,meteohub,2013-06-21 22:27:00,
2013-06-21 15:32:00,72.7,19.0,29.69,NE,42,6.0,11.0,13,0.00,,,0.00,meteohub,2013-06-21 22:32:00,
2013-06-21 15:37:00,72.9,22.5,29.69,NW,307,9.0,10.0,15,0.00,,,0.00,meteohub,2013-06-21 22:37:00,
2013-06-21 15:42:00,72.3,18.7,29.69,North,355,5.0,10.0,13,0.00,,,0.00,meteohub,2013-06-21 22:42:00,
2013-06-21 15:47:00,72.1,21.9,29.69,NW,319,5.0,9.0,15,0.00,,,0.00,meteohub,2013-06-21 22:47:00,
2013-06-21 15:52:00,72.1,20.3,29.69,North,9,1.0,9.0,14,0.00,,,0.00,meteohub,2013-06-21 22:52:00,
2013-06-21 15:57:00,72.5,18.9,29.69,NW,321,4.0,7.0,13,0.00,,,0.00,meteohub,2013-06-21 22:57:00,
2013-06-21 16:07:00,73.0,19.2,29.69,ENE,66,3.0,8.0,13,0.00,,,0.00,meteohub,2013-06-21 23:07:00,
2013-06-21 16:12:00,73.4,17.8,29.68,NNE,18,2.0,8.0,12,0.00,,,0.00,meteohub,2013-06-21 23:12:00,
2013-06-21 16:17:00,73.6,21.4,29.68,NNE,26,7.0,11.0,14,0.00,,,0.00,meteohub,2013-06-21 23:17:00,
2013-06-21 16:22:00,73.6,24.6,29.68,NE,44,4.0,11.0,16,0.00,,,0.00,meteohub,2013-06-21 23:22:00,
2013-06-21 16:27:00,73.0,22.6,29.68,NNE,19,3.0,12.0,15,0.00,,,0.00,meteohub,2013-06-21 23:27:00,
2013-06-21 16:32:00,72.9,22.5,29.68,NW,307,6.0,12.0,15,0.00,,,0.00,meteohub,2013-06-21 23:32:00,
2013-06-21 16:37:00,72.7,23.9,29.68,NW,310,7.0,12.0,16,0.00,,,0.00,meteohub,2013-06-21 23:37:00,
2013-06-21 16:42:00,72.9,24.1,29.68,NW,306,8.0,12.0,16,0.00,,,0.00,meteohub,2013-06-21 23:42:00,
2013-06-21 16:47:00,73.2,19.4,29.68,North,5,2.0,12.0,13,0.00,,,0.00,meteohub,2013-06-21 23:47:00,
2013-06-21 16:52:00,73.4,24.4,29.67,NW,319,9.0,12.0,16,0.00,,,0.00,meteohub,2013-06-21 23:52:00,
2013-06-21 16:57:00,73.0,25.7,29.67,North,349,4.0,12.0,17,0.00,,,0.00,meteohub,2013-06-21 23:57:00,
2013-06-21 17:02:00,72.5,25.2,29.67,NW,309,5.0,12.0,17,0.00,,,0.00,meteohub,2013-06-22 00:02:00,
2013-06-21 17:07:00,72.1,25.0,29.67,WNW,293,6.0,11.0,17,0.00,,,0.00,meteohub,2013-06-22 00:07:00,
2013-06-21 17:12:00,71.6,29.7,29.67,WNW,287,3.0,8.0,21,0.00,,,0.00,meteohub,2013-06-22 00:12:00,
2013-06-21 17:17:00,71.4,27.0,29.67,WNW,298,5.0,9.0,19,0.00,,,0.00,meteohub,2013-06-22 00:17:00,
2013-06-21 17:22:00,71.6,29.7,29.67,NW,313,4.0,9.0,21,0.00,,,0.00,meteohub,2013-06-22 00:22:00,
2013-06-21 17:27:00,71.8,28.6,29.67,NW,325,3.0,9.0,20,0.00,,,0.00,meteohub,2013-06-22 00:27:00,
2013-06-21 17:32:00,72.0,27.5,29.68,WNW,293,5.0,9.0,19,0.00,,,0.00,meteohub,2013-06-22 00:32:00,
2013-06-21 17:37:00,72.3,23.5,29.67,WNW,302,7.0,10.0,16,0.00,,,0.00,meteohub,2013-06-22 00:37:00,
2013-06-21 17:47:00,72.0,20.1,29.67,WNW,297,5.0,11.0,14,0.00,,,0.00,meteohub,2013-06-22 00:47:00,
2013-06-21 17:52:00,72.0,18.5,29.67,NNW,343,2.0,11.0,13,0.00,,,0.00,meteohub,2013-06-22 00:52:00,
2013-06-21 17:57:00,71.4,24.3,29.68,NW,313,6.0,11.0,17,0.00,,,0.00,meteohub,2013-06-22 00:57:00,
2013-06-21 18:02:00,71.2,21.2,29.68,NW,312,2.0,10.0,15,0.00,,,0.00,meteohub,2013-06-22 01:02:00,
2013-06-21 18:07:00,71.2,21.2,29.68,NW,310,5.0,10.0,15,0.00,,,0.00,meteohub,2013-06-22 01:07:00,
2013-06-21 18:17:00,70.3,24.8,29.68,NW,311,4.0,9.0,18,0.00,,,0.00,meteohub,2013-06-22 01:17:00,
2013-06-21 18:22:00,69.8,23.0,29.68,NE,55,2.0,8.0,17,0.00,,,0.00,meteohub,2013-06-22 01:22:00,
2013-06-21 18:27:00,69.8,24.4,29.68,NW,320,8.0,9.0,18,0.00,,,0.00,meteohub,2013-06-22 01:27:00,
2013-06-21 18:32:00,69.4,24.1,29.68,NW,315,3.0,9.0,18,0.00,,,0.00,meteohub,2013-06-22 01:32:00,
2013-06-21 18:37:00,69.4,25.3,29.69,WNW,298,3.0,9.0,19,0.00,,,0.00,meteohub,2013-06-22 01:37:00,
2013-06-21 18:42:00,70.2,20.3,29.68,NNE,12,7.0,9.0,15,0.00,,,0.00,meteohub,2013-06-22 01:42:00,
2013-06-21 18:47:00,71.2,19.6,29.68,ENE,77,1.0,9.0,14,0.00,,,0.00,meteohub,2013-06-22 01:47:00,
2013-06-21 18:52:00,71.8,19.9,29.69,NW,304,3.0,9.0,14,0.00,,,0.00,meteohub,2013-06-22 01:52:00,
2013-06-21 18:57:00,71.1,30.2,29.69,SW,227,0.0,9.0,22,0.00,,,0.00,meteohub,2013-06-22 01:57:00,
2013-06-21 19:07:00,69.4,25.3,29.69,SW,225,1.0,6.0,19,0.00,,,0.00,meteohub,2013-06-22 02:07:00,
2013-06-21 19:12:00,69.3,23.9,29.69,SW,225,0.0,3.0,18,0.00,,,0.00,meteohub,2013-06-22 02:12:00,
2013-06-21 19:17:00,69.3,29.8,29.69,SW,222,0.0,3.0,23,0.00,,,0.00,meteohub,2013-06-22 02:17:00,
2013-06-21 19:22:00,68.5,25.9,29.69,SSW,192,0.0,3.0,20,0.00,,,0.00,meteohub,2013-06-22 02:22:00,
2013-06-21 19:27:00,67.8,25.3,29.69,SE,144,2.0,3.0,20,0.00,,,0.00,meteohub,2013-06-22 02:27:00,
2013-06-21 19:32:00,66.4,26.4,29.69,ESE,122,3.0,3.0,22,0.00,,,0.00,meteohub,2013-06-22 02:32:00,
2013-06-21 19:37:00,65.8,23.7,29.70,ESE,113,1.0,5.0,20,0.00,,,0.00,meteohub,2013-06-22 02:37:00,
2013-06-21 19:42:00,64.4,33.1,29.70,SSE,151,0.0,5.0,31,0.00,,,0.00,meteohub,2013-06-22 02:42:00,
2013-06-21 19:47:00,62.6,32.4,29.70,SSE,151,0.0,5.0,32,0.00,,,0.00,meteohub,2013-06-22 02:47:00,
2013-06-21 19:52:00,61.2,31.1,29.70,SSE,164,4.0,4.0,32,0.00,,,0.00,meteohub,2013-06-22 02:52:00,
2013-06-21 19:57:00,59.7,28.9,29.70,SSE,161,2.0,5.0,31,0.00,,,0.00,meteohub,2013-06-22 02:57:00,
2013-06-21 20:02:00,59.2,24.3,29.70,ESE,106,0.0,5.0,26,0.00,,,0.00,meteohub,2013-06-22 03:02:00,
2013-06-21 20:07:00,58.3,28.6,29.71,SE,136,1.0,6.0,32,0.00,,,0.00,meteohub,2013-06-22 03:07:00,
2013-06-21 20:12:00,57.9,33.1,29.71,SSW,194,2.0,6.0,39,0.00,,,0.00,meteohub,2013-06-22 03:12:00,
2013-06-21 20:17:00,57.0,30.9,29.72,SSW,207,0.0,6.0,37,0.00,,,0.00,meteohub,2013-06-22 03:17:00,
2013-06-21 20:22:00,57.6,27.9,29.72,ESE,106,3.0,4.0,32,0.00,,,0.00,meteohub,2013-06-22 03:22:00,
2013-06-21 20:27:00,58.8,25.7,29.72,SSW,204,3.0,4.0,28,0.00,,,0.00,meteohub,2013-06-22 03:27:00,
2013-06-21 20:32:00,58.6,31.8,29.73,SSW,207,1.0,4.0,36,0.00,,,0.00,meteohub,2013-06-22 03:32:00,
2013-06-21 20:37:00,57.9,27.5,29.73,SW,224,0.0,4.0,31,0.00,,,0.00,meteohub,2013-06-22 03:37:00,
2013-06-21 20:42:00,57.4,32.0,29.73,SW,224,0.0,4.0,38,0.00,,,0.00,meteohub,2013-06-22 03:42:00,
2013-06-21 20:47:00,56.7,30.0,29.73,SW,224,0.0,4.0,36,0.00,,,0.00,meteohub,2013-06-22 03:47:00,
2013-06-21 20:52:00,56.7,23.0,29.73,ENE,65,2.0,4.0,27,0.00,,,0.00,meteohub,2013-06-22 03:52:00,
2013-06-21 20:57:00,56.3,30.4,29.74,SSE,148,0.0,7.0,37,0.00,,,0.00,meteohub,2013-06-22 03:57:00,
2013-06-21 21:02:00,55.2,33.1,29.74,SSE,149,0.0,7.0,43,0.00,,,0.00,meteohub,2013-06-22 04:02:00,
2013-06-21 21:07:00,54.5,28.0,29.75,SSE,149,0.0,7.0,36,0.00,,,0.00,meteohub,2013-06-22 04:07:00,
2013-06-21 21:12:00,54.3,29.3,29.75,NW,305,0.0,5.0,38,0.00,,,0.00,meteohub,2013-06-22 04:12:00,
2013-06-21 21:17:00,54.5,26.1,29.75,NE,51,0.0,5.0,33,0.00,,,0.00,meteohub,2013-06-22 04:17:00,
2013-06-21 21:22:00,53.8,30.6,29.75,SSW,200,2.0,5.0,41,0.00,,,0.00,meteohub,2013-06-22 04:22:00,
2013-06-21 21:27:00,53.2,25.5,29.75,SSW,200,0.0,5.0,34,0.00,,,0.00,meteohub,2013-06-22 04:27:00,
2013-06-21 21:32:00,53.4,25.0,29.75,SE,136,1.0,5.0,33,0.00,,,0.00,meteohub,2013-06-22 04:32:00,
2013-06-21 21:37:00,51.4,31.3,29.75,ESE,113,3.0,4.0,46,0.00,,,0.00,meteohub,2013-06-22 04:37:00,
2013-06-21 21:42:00,50.7,26.6,29.76,WSW,237,3.0,5.0,39,0.00,,,0.00,meteohub,2013-06-22 04:42:00,
2013-06-21 21:47:00,50.5,28.2,29.76,SSW,196,1.0,5.0,42,0.00,,,0.00,meteohub,2013-06-22 04:47:00,
2013-06-21 21:57:00,50.0,27.1,29.76,SSW,196,0.0,4.0,41,0.00,,,0.00,meteohub,2013-06-22 04:57:00,
2013-06-21 22:02:00,49.8,26.4,29.76,SSW,196,0.0,2.0,40,0.00,,,0.00,meteohub,2013-06-22 05:02:00,
2013-06-21 22:07:00,50.0,24.8,29.76,SE,127,1.0,1.0,37,0.00,,,0.00,meteohub,2013-06-22 05:07:00,
2013-06-21 22:12:00,49.6,32.2,29.76,SE,128,1.0,4.0,51,0.00,,,0.00,meteohub,2013-06-22 05:12:00,
2013-06-21 22:17:00,48.7,29.8,29.77,SE,128,0.0,4.0,48,0.00,,,0.00,meteohub,2013-06-22 05:17:00,
2013-06-21 22:22:00,48.0,29.3,29.77,SE,128,1.0,3.0,48,0.00,,,0.00,meteohub,2013-06-22 05:22:00,
2013-06-21 22:27:00,48.0,25.5,29.77,SE,128,0.0,2.0,41,0.00,,,0.00,meteohub,2013-06-22 05:27:00,
2013-06-21 22:32:00,47.8,28.6,29.77,SE,128,0.0,2.0,47,0.00,,,0.00,meteohub,2013-06-22 05:32:00,
2013-06-21 22:37:00,47.5,27.1,29.77,SE,128,0.0,2.0,45,0.00,,,0.00,meteohub,2013-06-22 05:37:00,
2013-06-21 22:42:00,46.9,26.8,29.77,SE,128,0.0,2.0,45,0.00,,,0.00,meteohub,2013-06-22 05:42:00,
2013-06-21 22:47:00,46.6,26.4,29.77,SE,128,0.0,2.0,45,0.00,,,0.00,meteohub,2013-06-22 05:47:00,
2013-06-21 22:57:00,45.9,27.3,29.77,SE,128,0.0,0.0,48,0.00,,,0.00,meteohub,2013-06-22 05:57:00,
2013-06-21 23:02:00,45.7,25.0,29.77,SE,128,0.0,2.0,44,0.00,,,0.00,meteohub,2013-06-22 06:02:00,
2013-06-21 23:07:00,45.3,30.6,29.78,SE,128,0.0,2.0,56,0.00,,,0.00,meteohub,2013-06-22 06:07:00,
2013-06-21 23:12:00,44.6,27.1,29.78,SE,128,0.0,2.0,50,0.00,,,0.00,meteohub,2013-06-22 06:12:00,
2013-06-21 23:17:00,44.2,24.8,29.78,SE,128,0.0,2.0,46,0.00,,,0.00,meteohub,2013-06-22 06:17:00,
2013-06-21 23:22:00,44.6,22.3,29.78,SE,128,0.0,2.0,41,0.00,,,0.00,meteohub,2013-06-22 06:22:00,
2013-06-21 23:27:00,45.1,30.7,29.78,SE,128,0.0,2.0,57,0.00,,,0.00,meteohub,2013-06-22 06:27:00,
2013-06-21 23:32:00,45.0,27.9,29.78,SE,128,0.0,2.0,51,0.00,,,0.00,meteohub,2013-06-22 06:32:00,
2013-06-21 23:37:00,43.9,28.8,29.78,SE,128,0.0,2.0,55,0.00,,,0.00,meteohub,2013-06-22 06:37:00,
2013-06-21 23:42:00,43.5,27.5,29.78,SE,128,0.0,2.0,53,0.00,,,0.00,meteohub,2013-06-22 06:42:00,
2013-06-21 23:47:00,43.0,28.4,29.78,SE,128,0.0,2.0,56,0.00,,,0.00,meteohub,2013-06-22 06:47:00,
2013-06-21 23:52:00,42.4,28.2,29.78,SE,128,1.0,2.0,57,0.00,,,0.00,meteohub,2013-06-22 06:52:00,
2013-06-21 23:57:00,42.3,26.8,29.78,SE,128,0.0,3.0,54,0.00,,,0.00,meteohub,2013-06-22 06:57:00,